OKEAN-0
1 25860U 99039A 12179.91673767 .00000196 00000-0 37177-4 0 06731
2 25860 097.9366 142.3404 0000872 108.4132 251.7172 14.74226442696155
NOAA-16
1 26536U 00055A 12179.87325121 .00000236 00000-0 15162-3 0 07998
2 26536 099.0931 222.1609 0011157 057.2595 302.9616 14.12753991606545
NOAA-17
1 27453U 02032A 12179.76980766 -.00000011 00000-0 12953-4 0 07521
2 27453 098.3345 206.2716 0012577 122.7081 237.5304 14.24449813520261
NOAA-18
1 28654U 05018A 12179.76823568 -.00000001 00000-0 24344-4 0 02305
2 28654 099.0465 137.9440 0014933 122.3144 237.9476 14.11666288366056
NOAA-19
1 33591U 09005A 12179.77845785 -.00000070 00000-0 -14305-4 0 04223
2 33591 098.8639 119.4361 0014325 355.7090 004.3963 14.11352719174501
HUBBLE
1 20580U 90037B 12179.15382168 .00000666 00000-0 36404-4 0 257
2 20580 028.4684 078.3233 0003142 151.0542 209.0221 15.02575545 16230
ISS
1 25544U 98067A 12180.89865916 .00008912 00000-0 13313-3 0 8302
2 25544 051.6400 063.8440 0008358 100.3910 009.0971 15.55839748779836
CO-58
1 28895U 05043F 12179.56411465 .00000366 00000-0 84026-4 0 2112
2 28895 097.9108 045.3800 0019172 117.6708 242.6472 14.60656053355172
FALCON
1 30776U 07006E 12179.52036952 .00001269 00000-0 84402-4 0 3778
2 30776 035.4336 213.7284 0001277 108.4604 251.6251 15.07631276291817
MAST
1 31126U 07012K 12179.95707179 .00000259 00000-0 67694-4 0 04995
2 31126 097.8731 190.4275 0095038 077.1200 284.0596 14.54177465275833
CAPE1
1 31130U 07012P 12179.58886372 .00000317 00000-0 81908-4 0 05037
2 31130 097.8823 186.4561 0102916 091.3617 269.9387 14.52960476275286
COMPASS
1 32787U 08021E 12179.72234924 .00000620 00000-0 80531-4 0 3398
2 32787 097.7978 240.8243 0015921 030.1381 330.0758 14.84050775225379
AAUSAT2
1 32788U 08021F 12179.82449981 .00001026 00000-0 12823-3 0 3312
2 32788 097.8024 241.3136 0015798 030.5398 329.6678 14.84379323225417
DO-64
1 32789U 08021G 12180.19792601 .00001418 00000-0 16855-3 0 3476
2 32789 097.8105 243.7404 0015171 025.7296 334.4670 14.85899748225516
CO-66
1 32791U 08021J 12179.71612938 .00000255 00000-0 37330-4 0 03334
2 32791 097.7992 240.5525 0016235 030.1380 330.0765 14.83458241225308
RS-30
1 32953U 08025A 12179.83379813 .00000010 00000-0 00000-0 0 09080
2 32953 082.5034 288.5175 0017459 285.4771 074.4385 12.43024897185883
TACSAT-3
1 35001U 09028A 12121.72616188 .15204951 73582-5 42606-3 0 00016
2 35001 040.4259 351.8840 0007146 275.2650 085.0693 16.45157000166990
PHARMSAT
1 35002U 09028B 12179.88257777 .00117694 00000-0 40644-3 0 09551
2 35002 040.4549 358.6355 0011826 322.7559 037.2441 15.88242503176029
METEOR-M
1 35865U 09049A 12179.77509445 -.00000027 00000-0 72237-5 0 05396
2 35865 098.6540 233.9025 0003096 036.5275 323.6114 14.21864770144101
RS-38
1 35869U 09049E 12180.21683797 .00000013 00000-0 25663-4 0 5477
2 35869 098.6490 234.3293 0005202 029.4334 330.7128 14.22076153144182
JUGNU
1 37839U 11058B 12180.33590576 .00000619 00000-0 19019-3 0 1749
2 37839 019.9628 290.7146 0019060 347.7570 012.2371 14.12064068 36822
SRMSAT
1 37841U 11058D 12180.40558951 .00000264 00000-0 00000 0 0 1743
2 37841 019.9751 295.3847 0012447 312.4492 047.4860 14.10146381 36779
RAX-2
1 37853U 11061D 12179.73199085 .00001119 00000-0 98811-4 0 02207
2 37853 101.7121 224.7187 0246763 320.8583 037.4987 14.80114363035961
AUBIESAT
1 37854U 11061E 12179.88673036 .00001362 00000-0 11640-3 0 02245
2 37854 101.7142 225.2069 0246872 319.7424 038.5722 14.80506546035970
HRBE
1 37855U 11061F 12179.96901766 .00001497 00000-0 12673-3 0 02155
2 37855 101.7152 225.2814 0248014 319.6386 038.6636 14.80358982035981
RS-39
1 38051U 11062C 12180.21547743 .00003772 00000-0 16476-3 0 4645
2 38051 051.6436 107.2792 0014375 076.5288 080.3667 15.24480475 23654
E-STAR
1 38079U 12006C 12180.33239819 .00022569 00000-0 54784-3 0 3131
2 38079 069.4953 290.1947 0743362 233.8864 119.1156 14.15272477 19167
GOLIAT
1 38085U 12006J 12180.33166949 .00023281 00000-0 56511-3 0 2895
2 38085 069.4927 290.4938 0747931 234.1012 118.8385 14.14292746 19152
HORYU-2
1 38340U 12025D 12180.87468133 .00000511 00000-0 93684-4 0 442
2 38340 098.1743 120.6293 0012057 297.8543 062.1444 14.70003208 6190
